User: anonymous   Login
Location: Albany
(35.0000°S, 118.0000°E)
Time: 04:17:04
(UTC-04:00)
Language:

ADEOS Rocket - Orbit

View from above orbital plane
View from above orbital plane
View from above satellite
View from above satellite

Ground track
Ground track

The orbit data is extracted from the following two-line orbital elements,

1 24279U 96046C   16121.86085882 +.00000008 +00000-0 +58183-4 0  9992
2 24279 098.6993 111.9669 0299047 260.3989 156.4134 13.47047379968463
Epoch (UTC): 30 April 2016 20:39:38
Eccentricity: 0.0299047
inclination: 98.6993°
perigee height: 860 km
apogee height: 1306 km
right ascension of ascending node: 111.9669°
argument of perigee: 260.3989°
revolutions per day: 13.47047379
mean anomaly at epoch: 156.4134°
orbit number at epoch: 96846

The dashed part of the orbit path shows where the satellite is in the earth's shadow,  

DLR